Stations météo

réclame
Mon MeteoGroup
Karlstad Flygplats, Suède (2418): Température de l'air & dewpoint: 14.06.2019 00:00:00 - 20.06.2019 00:00:00 (CEST)Karlstad Flygplats, Suède (2418): Vitesse du vent: 14.06.2019 00:00:00 - 20.06.2019 00:00:00 (CEST)Karlstad Flygplats, Suède (2418): Direction du vent: 14.06.2019 00:00:00 - 20.06.2019 00:00:00 (CEST)Karlstad Flygplats, Suède (2418): reduced air pressure: 14.06.2019 00:00:00 - 20.06.2019 00:00:00 (CEST)Karlstad Flygplats, Suède (2418): visibility: 14.06.2019 00:00:00 - 20.06.2019 00:00:00 (CEST)
Date & Time tt [°C] td [°C] ff [km/h] ff [knt] dd ppp [hPa] vv [km]
20.06.2019 00:00:00 - - - - - - -
19.06.2019 23:00:00 18,0 14,9 11 6 E 1007,4 45
19.06.2019 22:00:00 20,1 12,1 11 6 ESE 1007,9 45
19.06.2019 21:00:00 21,3 13,0 4 2 SE 1008,1 50
19.06.2019 20:00:00 22,0 12,0 4 2 SE 1008,0 40
19.06.2019 19:00:00 22,0 13,1 11 6 ESE 1008,5 45
19.06.2019 18:00:00 22,8 10,9 14 8 SE 1008,8 50
19.06.2019 17:00:00 23,1 10,8 7 4 SSE 1009,4 50
19.06.2019 16:00:00 21,4 12,3 7 4 SE 1010,1 45
19.06.2019 15:00:00 21,2 12,1 14 8 S 1010,7 40
19.06.2019 14:00:00 22,2 11,0 14 8 S 1010,8 45
19.06.2019 13:00:00 21,3 11,3 11 6 SSW 1011,1 40
19.06.2019 12:00:00 20,5 12,5 11 6 S 1011,1 45
19.06.2019 11:00:00 20,1 12,1 11 6 S 1011,3 40
19.06.2019 10:00:00 19,3 12,6 11 6 S 1011,3 50
19.06.2019 09:00:00 18,3 13,4 11 6 S 1011,7 30
19.06.2019 08:00:00 16,6 13,5 11 6 S 1011,7 30
19.06.2019 07:00:00 15,2 14,9 7 4 S 1011,7 19
19.06.2019 06:00:00 13,9 13,9 7 4 SSW 1011,7 2,6
19.06.2019 05:00:00 13,1 13,1 7 4 S 1011,8 2,9
19.06.2019 04:00:00 13,1 13,1 4 2 SW 1012,0 0,8
19.06.2019 03:00:00 13,4 13,4 11 6 S 1012,0 4,5
19.06.2019 02:00:00 13,8 13,8 7 4 S 1012,2 5
19.06.2019 01:00:00 13,9 13,7 7 4 S 1012,3 7
19.06.2019 00:00:00 15,1 14,1 11 6 S 1012,1 23
18.06.2019 23:00:00 15,1 14,1 11 6 S 1012,5 24
18.06.2019 22:00:00 16,0 14,5 14 8 S 1012,4 30
18.06.2019 21:00:00 16,4 15,1 14 8 SSE 1012,5 26
18.06.2019 20:00:00 17,3 14,9 11 6 SSE 1012,4 40
18.06.2019 19:00:00 18,4 14,9 14 8 S 1012,8 40
18.06.2019 18:00:00 18,0 15,4 18 10 S 1013,3 40
18.06.2019 17:00:00 18,8 15,3 14 8 SSW 1014,2 29
18.06.2019 16:00:00 18,8 15,3 14 8 SSW 1014,2 29
18.06.2019 15:00:00 16,7 15,1 14 8 S 1014,8 40
18.06.2019 14:00:00 16,3 15,5 14 8 SSE 1015,3 27
18.06.2019 13:00:00 15,2 14,9 14 8 S 1015,9 17
18.06.2019 12:00:00 14,8 14,3 14 8 SSE 1015,7 16
18.06.2019 11:00:00 14,6 14,1 11 6 SSE 1016,5 18
18.06.2019 10:00:00 14,0 13,0 11 6 SSE 1017,1 10
18.06.2019 09:00:00 16,5 12,3 14 8 S 1016,8 45
18.06.2019 08:00:00 15,0 11,8 7 4 S 1016,8 30
18.06.2019 07:00:00 13,9 11,8 11 6 SSW 1017,2 30
18.06.2019 06:00:00 12,7 11,3 11 6 S 1017,2 40
18.06.2019 05:00:00 11,1 10,6 11 6 S 1017,4 24
18.06.2019 04:00:00 9,7 9,4 11 6 S 1017,4 19
18.06.2019 03:00:00 9,7 8,9 11 6 S 1017,6 23
18.06.2019 02:00:00 11,3 9,6 11 6 SSW 1017,4 45
18.06.2019 01:00:00 12,8 9,8 14 8 SW 1017,1 50
18.06.2019 00:00:00 13,4 9,6 14 8 SW 1017,1 50
17.06.2019 23:00:00 14,6 9,8 18 10 SSW 1016,9 50
17.06.2019 22:00:00 16,3 10,2 25 14 SW 1016,6 50
17.06.2019 21:00:00 17,4 11,7 18 10 SW 1016,3 50
17.06.2019 20:00:00 17,6 11,4 22 12 SW 1016,4 50
17.06.2019 19:00:00 18,8 10,9 29 16 WSW 1016,4 40
17.06.2019 18:00:00 19,5 10,5 29 16 SW 1016,2 40
17.06.2019 17:00:00 20,2 9,4 25 14 SW 1016,2 50
17.06.2019 16:00:00 20,6 8,2 29 16 WSW 1016,3 40
17.06.2019 15:00:00 20,9 7,9 29 16 SW 1016,2 45
17.06.2019 14:00:00 20,6 7,9 18 10 WSW 1016,2 50
17.06.2019 13:00:00 20,4 7,4 25 14 SW 1016,2 45
17.06.2019 12:00:00 19,6 6,7 22 12 WSW 1016,2 50
17.06.2019 11:00:00 18,7 7,8 18 10 SW 1016,0 30
17.06.2019 10:00:00 17,3 9,0 18 10 SW 1016,1 40
17.06.2019 09:00:00 15,9 8,9 18 10 SW 1016,1 35
17.06.2019 08:00:00 14,0 9,8 18 10 SW 1016,0 35
17.06.2019 07:00:00 12,7 10,2 18 10 SSW 1016,1 40
17.06.2019 06:00:00 11,2 10,3 14 8 SSW 1016,3 23
17.06.2019 05:00:00 9,9 9,6 14 8 SSW 1016,3 16
17.06.2019 04:00:00 9,0 8,7 11 6 SSW 1016,3 12
17.06.2019 03:00:00 10,1 9,3 11 6 S 1016,2 29
17.06.2019 02:00:00 11,5 9,7 11 6 S 1016,2 40
17.06.2019 01:00:00 12,0 9,6 11 6 SSW 1016,2 50
17.06.2019 00:00:00 12,8 8,7 7 4 SW 1016,1 50
16.06.2019 23:00:00 13,7 8,7 14 8 SW 1016,0 50
16.06.2019 22:00:00 15,2 9,8 11 6 WSW 1015,7 50
16.06.2019 21:00:00 16,2 12,6 11 6 SW 1015,5 50
16.06.2019 20:00:00 17,2 13,1 18 10 WSW 1015,2 50
16.06.2019 19:00:00 18,0 14,1 22 12 WSW 1014,8 50
16.06.2019 18:00:00 19,7 14,9 14 8 S 1014,5 50
16.06.2019 17:00:00 19,6 14,6 18 10 SSW 1014,5 45
16.06.2019 16:00:00 21,5 14,6 11 6 S 1014,3 45
16.06.2019 15:00:00 20,7 13,9 11 6 S 1014,3 40
16.06.2019 14:00:00 22,7 12,6 14 8 SE 1014,1 35
16.06.2019 13:00:00 21,8 12,1 11 6 SE 1014,1 45
16.06.2019 12:00:00 20,4 11,6 11 6 SSE 1014,4 50
16.06.2019 11:00:00 19,7 10,7 7 4 SSE 1014,3 50
16.06.2019 10:00:00 20,7 11,9 11 6 S 1014,3 50
16.06.2019 09:00:00 20,6 11,2 11 6 SSE 1014,1 45
16.06.2019 08:00:00 19,1 12,1 7 4 SSE 1013,9 45
16.06.2019 07:00:00 17,4 12,5 7 4 SE 1013,8 50
16.06.2019 06:00:00 17,0 12,5 7 4 E 1013,6 50
16.06.2019 05:00:00 16,7 12,8 7 4 E 1013,5 45
16.06.2019 04:00:00 15,4 12,5 4 2 ENE 1013,8 50
16.06.2019 03:00:00 13,3 11,5 7 4 NE 1014,1 50
16.06.2019 02:00:00 12,9 11,6 4 2 NNE 1014,4 45
16.06.2019 01:00:00 18,2 12,0 11 6 ENE 1014,3 50
16.06.2019 00:00:00 18,8 11,8 7 4 ENE 1014,2 50
15.06.2019 23:00:00 18,6 10,2 4 2 NE 1014,0 45
15.06.2019 22:00:00 20,2 12,7 7 4 N 1014,2 50
15.06.2019 21:00:00 22,3 12,3 4 2 W 1014,4 50
15.06.2019 20:00:00 23,7 12,0 4 2 W 1014,6 45
15.06.2019 19:00:00 24,3 7,9 4 2 ESE 1015,0 40
15.06.2019 18:00:00 24,6 7,7 7 4 SSE 1015,4 50
15.06.2019 17:00:00 24,4 9,9 7 4 SSE 1016,0 50
15.06.2019 16:00:00 24,2 9,0 11 6 SE 1016,4 50
15.06.2019 15:00:00 24,7 9,0 14 8 S 1017,0 35
15.06.2019 14:00:00 23,5 9,1 7 4 ESE 1017,0 50
15.06.2019 13:00:00 22,4 9,2 7 4 SSW 1018,2 50
15.06.2019 12:00:00 22,5 8,9 7 4 ESE 1018,4 50
15.06.2019 11:00:00 21,5 10,6 4 2 SSW 1018,7 50
15.06.2019 10:00:00 21,0 9,9 7 4 ENE 1019,0 35
15.06.2019 09:00:00 19,7 12,2 4 2 NNE 1019,1 50
15.06.2019 08:00:00 18,2 12,9 4 2 N 1019,1 50
15.06.2019 07:00:00 16,9 13,4 0 0 N 1019,4 45
15.06.2019 06:00:00 14,1 13,6 4 2 ENE 1019,6 30
15.06.2019 05:00:00 10,5 10,5 7 4 NNE 1019,8 3,8
15.06.2019 04:00:00 11,7 11,7 4 2 SSW 1019,7 18
15.06.2019 03:00:00 11,3 11,3 0 0 N 1019,8 28
15.06.2019 02:00:00 11,3 11,3 0 0 N 1019,8 4,0
15.06.2019 01:00:00 11,0 11,0 4 2 SW 1020,1 3,4
15.06.2019 00:00:00 10,9 10,4 4 2 WSW 1019,8 0,1
14.06.2019 23:00:00 12,7 12,4 0 0 N 1019,6 30
14.06.2019 22:00:00 14,6 13,1 4 2 SW 1019,4 50
14.06.2019 21:00:00 16,4 12,7 0 0 N 1019,0 50
14.06.2019 20:00:00 18,0 12,7 11 6 NW 1018,9 50
14.06.2019 19:00:00 19,5 11,8 11 6 S 1018,6 35
14.06.2019 18:00:00 20,1 11,8 14 8 S 1018,6 50
14.06.2019 17:00:00 20,2 12,4 11 6 S 1018,7 50
14.06.2019 16:00:00 19,6 12,1 14 8 S 1018,9 40
14.06.2019 15:00:00 19,9 11,4 14 8 SSW 1019,0 40
14.06.2019 14:00:00 19,2 12,9 7 4 SSE 1019,6 40
14.06.2019 13:00:00 17,7 13,2 7 4 ESE 1019,9 35
14.06.2019 12:00:00 16,4 13,1 7 4 ENE 1019,9 50
14.06.2019 11:00:00 15,2 13,6 0 0 N 1020,1 40
14.06.2019 10:00:00 15,7 14,2 4 2 SE 1019,3 35
14.06.2019 09:00:00 13,2 13,2 7 4 ENE 1019,0 30
14.06.2019 08:00:00 11,8 11,8 7 4 ENE 1018,9 13
14.06.2019 07:00:00 11,4 11,4 4 2 N 1018,8 0,5
14.06.2019 06:00:00 11,5 11,5 4 2 ENE 1018,3 0,1
14.06.2019 05:00:00 11,2 11,2 7 4 NNE 1017,9 0,1
14.06.2019 04:00:00 10,4 10,4 0 0 N 1018,0 0,1
14.06.2019 03:00:00 10,6 10,6 4 2 NE 1017,4 0,1
14.06.2019 02:00:00 9,9 9,9 14 8 NNE 1017,2 0,3
14.06.2019 01:00:00 10,1 10,1 0 0 N 1017,6 0,2
14.06.2019 00:00:00 10,6 10,6 0 0 N 1017,5 0,1

tt = Température de l'air
td = dewpoint
ff = Vitesse du vent
dd = Direction du vent
ppp = reduced air pressure
vv = visibility

stations d'obs. à proximité